Hourly Weather Bolshie Kalmyki

Today, 24 July, Saturday

Time Temperature Precipitation Wind Pressure Humidity
00:00 +15°C° 0 mm 2 mps 735 mmHg 76%
01:00 +15°C° 0 mm 2 mps 735 mmHg 76%
02:00 +15°C° 0 mm 2 mps 736 mmHg 76%
03:00 +14°C° 0 mm 2 mps 736 mmHg 77%
04:00 +14°C° 0 mm 2 mps 736 mmHg 78%
05:00 +14°C° 0 mm 2 mps 736 mmHg 79%
06:00 +14°C° 0 mm 2 mps 736 mmHg 81%
07:00 +16°C° 0 mm 2 mps 736 mmHg 74%
08:00 +17°C° 0 mm 3 mps 737 mmHg 68%
09:00 +18°C° 0 mm 3 mps 737 mmHg 61%
10:00 +18°C° 0 mm 3 mps 737 mmHg 60%
11:00 +18°C° 0 mm 3 mps 738 mmHg 59%
12:00 +18°C° 0 mm 3 mps 738 mmHg 58%
13:00 +19°C° 0 mm 3 mps 738 mmHg 54%
14:00 +20°C° 0 mm 3 mps 738 mmHg 50%
15:00 +21°C° 0 mm 3 mps 739 mmHg 46%
16:00 +20°C° 0 mm 3 mps 739 mmHg 47%
17:00 +20°C° 0 mm 2 mps 739 mmHg 48%
18:00 +19°C° 0 mm 2 mps 739 mmHg 49%
19:00 +18°C° 0 mm 2 mps 740 mmHg 51%
20:00 +17°C° 0 mm 2 mps 740 mmHg 53%
21:00 +16°C° 0 mm 2 mps 740 mmHg 55%
22:00 +16°C° 0 mm 1 mps 741 mmHg 57%
23:00 +15°C° 0 mm 1 mps 741 mmHg 60%

Tomorrow, 25 July, Sunday

Time Temperature Precipitation Wind Pressure Humidity
00:00 +14°C° 0 mm 1 mps 741 mmHg 62%
01:00 +14°C° 0 mm 1 mps 741 mmHg 65%
02:00 +13°C° 0 mm 1 mps 742 mmHg 67%
03:00 +12°C° 0 mm 1 mps 742 mmHg 70%
04:00 +13°C° 0 mm 1 mps 742 mmHg 70%
05:00 +13°C° 0 mm 1 mps 743 mmHg 69%
06:00 +13°C° 0 mm 1 mps 743 mmHg 69%
07:00 +15°C° 0 mm 1 mps 743 mmHg 62%
08:00 +18°C° 0 mm 1 mps 744 mmHg 55%
09:00 +20°C° 0 mm 1 mps 744 mmHg 49%
10:00 +21°C° 0 mm 1 mps 744 mmHg 45%
11:00 +23°C° 0 mm 1 mps 744 mmHg 41%
12:00 +24°C° 0 mm 1 mps 744 mmHg 37%
13:00 +23°C° 0 mm 1 mps 744 mmHg 37%
14:00 +23°C° 0 mm 1 mps 744 mmHg 37%
15:00 +23°C° 0 mm 2 mps 744 mmHg 37%
16:00 +23°C° 0 mm 1 mps 744 mmHg 38%
17:00 +23°C° 0 mm 1 mps 744 mmHg 40%
18:00 +23°C° 0 mm 1 mps 744 mmHg 41%
19:00 +21°C° 0 mm 1 mps 745 mmHg 45%
20:00 +19°C° 0 mm 1 mps 745 mmHg 50%
21:00 +18°C° 0 mm 1 mps 745 mmHg 54%
22:00 +16°C° 0 mm 2 mps 745 mmHg 55%
23:00 +16°C° 0 mm 2 mps 745 mmHg 55%

Day after tomorrow, 26 July, Monday

Time Temperature Precipitation Wind Pressure Humidity
00:00 +16°C° 0 mm 2 mps 745 mmHg 56%
01:00 +16°C° 0 mm 2 mps 745 mmHg 56%
02:00 +16°C° 0 mm 2 mps 746 mmHg 55%
03:00 +16°C° 0 mm 1 mps 746 mmHg 55%
04:00 +16°C° 0 mm 1 mps 746 mmHg 55%
05:00 +16°C° 0 mm 1 mps 746 mmHg 55%
06:00 +16°C° 0 mm 1 mps 746 mmHg 55%
07:00 +19°C° 0 mm 1 mps 746 mmHg 52%
08:00 +20°C° 0 mm 1 mps 746 mmHg 49%
09:00 +21°C° 0 mm 1 mps 746 mmHg 47%
10:00 +23°C° 0 mm 1 mps 746 mmHg 43%
11:00 +24°C° 0 mm 1 mps 747 mmHg 40%
12:00 +25°C° 0 mm 2 mps 747 mmHg 37%
13:00 +26°C° 0 mm 2 mps 746 mmHg 36%
14:00 +26°C° 0 mm 2 mps 746 mmHg 35%
15:00 +26°C° 0 mm 2 mps 746 mmHg 34%
16:00 +26°C° 0 mm 2 mps 746 mmHg 36%
17:00 +26°C° 0 mm 2 mps 746 mmHg 37%
18:00 +26°C° 0 mm 2 mps 746 mmHg 39%
19:00 +24°C° 0 mm 1 mps 746 mmHg 44%
20:00 +22°C° 0 mm 1 mps 746 mmHg 50%
21:00 +20°C° 0 mm 1 mps 746 mmHg 56%
22:00 +19°C° 0 mm 1 mps 746 mmHg 57%
23:00 +18°C° 0 mm 1 mps 746 mmHg 59%

27 July, Tuesday

Time Temperature Precipitation Wind Pressure Humidity
00:00 +16°C° 0 mm 0 mps 746 mmHg 60%
01:00 +15°C° 0 mm 0 mps 746 mmHg 62%
02:00 +16°C° 0 mm 1 mps 746 mmHg 63%
03:00 +15°C° 0 mm 1 mps 746 mmHg 65%
04:00 +16°C° 0 mm 1 mps 746 mmHg 65%
05:00 +16°C° 0 mm 1 mps 746 mmHg 64%
06:00 +18°C° 0 mm 1 mps 746 mmHg 64%
07:00 +20°C° 0 mm 1 mps 746 mmHg 58%
08:00 +22°C° 0 mm 1 mps 746 mmHg 52%
09:00 +24°C° 0 mm 1 mps 746 mmHg 46%
10:00 +25°C° 0 mm 2 mps 746 mmHg 43%
11:00 +26°C° 0 mm 2 mps 746 mmHg 40%
12:00 +27°C° 0 mm 2 mps 745 mmHg 37%
13:00 +28°C° 0 mm 2 mps 745 mmHg 36%
14:00 +28°C° 0 mm 2 mps 745 mmHg 35%
15:00 +28°C° 0 mm 3 mps 744 mmHg 34%
16:00 +28°C° 0 mm 2 mps 744 mmHg 36%
17:00 +28°C° 0 mm 2 mps 744 mmHg 39%
18:00 +28°C° 0 mm 2 mps 744 mmHg 41%
19:00 +26°C° 0 mm 2 mps 744 mmHg 46%
20:00 +24°C° 0 mm 2 mps 743 mmHg 52%
21:00 +22°C° 0 mm 1 mps 743 mmHg 57%
22:00 +21°C° 0 mm 1 mps 743 mmHg 60%
23:00 +20°C° 0 mm 1 mps 743 mmHg 62%

28 July, Wednesday

Time Temperature Precipitation Wind Pressure Humidity
00:00 +20°C° 0 mm 1 mps 743 mmHg 65%
01:00 +19°C° 0 mm 1 mps 743 mmHg 66%
02:00 +19°C° 0 mm 1 mps 743 mmHg 68%
03:00 +19°C° 0 mm 1 mps 743 mmHg 69%
04:00 +19°C° 0 mm 1 mps 743 mmHg 69%
05:00 +19°C° 0 mm 1 mps 742 mmHg 70%
06:00 +18°C° 0 mm 0 mps 742 mmHg 70%
07:00 +22°C° 0 mm 1 mps 742 mmHg 63%
08:00 +24°C° 0 mm 1 mps 742 mmHg 56%
09:00 +26°C° 0 mm 2 mps 742 mmHg 49%
10:00 +27°C° 0 mm 2 mps 742 mmHg 45%
11:00 +28°C° 0 mm 2 mps 742 mmHg 40%
12:00 +29°C° 0 mm 2 mps 741 mmHg 36%
13:00 +30°C° 0 mm 2 mps 741 mmHg 35%
14:00 +30°C° 0 mm 2 mps 741 mmHg 33%
15:00 +30°C° 0 mm 3 mps 740 mmHg 32%
16:00 +30°C° 0 mm 3 mps 740 mmHg 34%
17:00 +30°C° 0 mm 3 mps 740 mmHg 36%
18:00 +29°C° 0 mm 3 mps 739 mmHg 38%
19:00 +27°C° 0 mm 3 mps 739 mmHg 44%
20:00 +25°C° 0 mm 3 mps 739 mmHg 50%
21:00 +22°C° 0 mm 3 mps 739 mmHg 56%
22:00 +20°C° 0 mm 3 mps 738 mmHg 65%
23:00 +19°C° 0 mm 3 mps 738 mmHg 75%

29 July, Thursday

Time Temperature Precipitation Wind Pressure Humidity
00:00 +17°C° 0 mm 2 mps 738 mmHg 84%
01:00 +17°C° 0.1 mm 2 mps 738 mmHg 86%
02:00 +17°C° 0.1 mm 2 mps 738 mmHg 87%
03:00 +17°C° 0.1 mm 2 mps 737 mmHg 88%
04:00 +17°C° 0.3 mm 2 mps 737 mmHg 90%
05:00 +17°C° 0.3 mm 2 mps 737 mmHg 92%
06:00 +17°C° 0.3 mm 2 mps 737 mmHg 94%
07:00 +17°C° 1 mm 2 mps 736 mmHg 94%
08:00 +18°C° 1 mm 2 mps 736 mmHg 94%
09:00 +18°C° 1 mm 2 mps 736 mmHg 94%
10:00 +18°C° 1 mm 2 mps 736 mmHg 92%
11:00 +20°C° 1 mm 1 mps 736 mmHg 90%
12:00 +21°C° 1 mm 1 mps 736 mmHg 88%
13:00 +22°C° 0.2 mm 1 mps 735 mmHg 84%
14:00 +21°C° 0.2 mm 2 mps 735 mmHg 80%
15:00 +23°C° 0.2 mm 2 mps 735 mmHg 76%
16:00 +24°C° 0.2 mm 2 mps 735 mmHg 74%
17:00 +24°C° 0.2 mm 2 mps 735 mmHg 73%
18:00 +24°C° 0.2 mm 3 mps 735 mmHg 72%
19:00 +23°C° 0 mm 2 mps 735 mmHg 77%
20:00 +20°C° 0 mm 2 mps 735 mmHg 81%
21:00 +20°C° 0 mm 1 mps 735 mmHg 86%
22:00 +20°C° 0 mm 1 mps 735 mmHg 88%
23:00 +19°C° 0 mm 1 mps 735 mmHg 89%
Show more

We Need Your Consent

Meteoprog and our Service Providers may store and access personal data such as cookies, device identifiers or other similar technologies on your device and process such data to personalise content and ads, as well as provide social media features and to analyse the traffic.

  • Store and/or access information on your device

    Cookies, device identifiers or other information can be stored or accessed on your device for the purposes indicated above.

  • Personalised ads and content, ad and content measurement, audience insights, and products development

    Ads and content can be personalised based on a profile. More data can be added to better personalise ads and content. Ad and content performance can be measured. Insights about the audience who saw the ads and content can be derived. Such data can be used to develop or improve user’s experience, systems and software.

By clicking ‘I Agree’ you will allow the use of indicated cookies, device identifiers, web beacons or other similar technologies. Your settings can be changed in the browser on your device.

For certain purposes, legitimate interests may be relied on, rather than consent. You can read more about this in our Privacy and Cookie Policy.